Tracking 19644 objects as of 26-Apr-2019
HD Live streaming from Space Station
objects crossing your sky now

SL-14 DEB

Track SL-14 DEB now!
10-day predictions


NORAD ID: 39976
Int'l Code: 1987-068DC
Perigee: 902.2 km
Apogee: 918.0 km
Inclination: 82.6 °
Period: 103.1 minutes
Semi major axis: 7281 km
RCS: 0.0056 m2 (small)
Launch date: August 18, 1987
Source: Commonwealth of Independent States (former USSR) (CIS)
Launch site: PLESETSK MISSILE AND SPACE COMPLEX (PKMTR)

Note: This is SATELLITE DEBRIS
aabbcc
Your satellite tracking list
Your tracking list is empty




NASA's NSSDC Master Catalog

Two Line Element Set (TLE):
1 39976U 87068DC  19110.34040793  .00000321  00000-0  21794-3 0  9997
2 39976  82.5506 129.3016 0010893 335.2382  24.8594 13.97360482766881
Source of the keplerian elements: AFSPC